New Philadelphia, OH

2:34 PM EST on January 22, 2018 (GMT -0500)
Clever

Weather History for KPHD - September, 2012

Change the Weather History Date:

Sunday, September 2, 2012

  Actual Average Record
Temperature  
Mean Temperature 75 °F 69 °F  
Max Temperature 81 °F 80 °F 93 °F (1973)
Min Temperature 68 °F 57 °F 41 °F (1967)
Degree Days  
Heating Degree Days 0 1  
Month to date heating degree days 0 2  
Since 1 July heating degree days 1 12  
Cooling Degree Days 10 4  
Month to date cooling degree days 23 8  
Year to date cooling degree days 916 630  
Growing Degree Days 24 (Base 50)    
Moisture  
Dew Point 70 °F    
Average Humidity 85    
Maximum Humidity 100    
Minimum Humidity 69    
Precipitation  
Precipitation 0.01 in 0.12 in 1.57 in (1962)
Month to date precipitation 1.36 0.25  
Year to date precipitation 19.88 27.20  
Sea Level Pressure  
Sea Level Pressure 30.03 in    
Wind  
Wind Speed 2 mph (SE)    
Max Wind Speed 8 mph    
Max Gust Speed 12 mph    
Visibility 8 miles    
Events Rain    
T = Trace of Precipitation, MM = Missing Value Source: NWS Daily Summary

Daily Weather History Graph

Daily Weather History Graph

Search for Another Location

Airport or City:

Trip Planner

Search our weather history database for the weather conditions in past years. The results will help you decide how hot, cold, wet, or windy it might be!

Date:

Astronomy

Sep. 02, 2012 Rise Set
Actual Time 6:54 AM EDT 7:55 PM EDT
Civil Twilight 6:26 AM EDT 8:23 PM EDT
Nautical Twilight 5:53 AM EDT 8:56 PM EDT
Astronomical Twilight 5:18 AM EDT 9:30 PM EDT
Moon 8:41 PM EDT (9/2) 9:02 AM EDT (9/2)
Length of Visible Light 13h 56m
Length of Day
13h 00m
Waning Gibbous, 95% of the Moon is Illuminated
Sep 2
Waning Gibbous
Sep 8
Last Quarter
Sep 15
New
Sep 22
First Quarter
Sep 29
Full

Hourly Weather History & Observations

Time (EDT) Temp. Heat Index Dew Point Humidity Pressure Visibility Wind Dir Wind Speed Gust Speed Precip Events Conditions
12:53 AM 72.0 °F - 71.1 °F 97% 30.05 in 10.0 mi ESE 4.6 mph - 0.02 in Rain Light Rain
1:11 AM 71.6 °F - 71.6 °F 100% 30.07 in 10.0 mi Calm Calm - N/A   Mostly Cloudy
1:51 AM 71.6 °F - 69.8 °F 94% 30.07 in 10.0 mi Calm Calm - 0.00 in Rain Light Rain
1:53 AM 72.0 °F - 70.0 °F 93% 30.04 in 10.0 mi Calm Calm - 0.00 in Rain Light Rain
2:02 AM 71.6 °F - 69.8 °F 94% 30.06 in 10.0 mi Calm Calm - 0.00 in   Overcast
2:34 AM 71.6 °F - 71.6 °F 100% 30.05 in 7.0 mi Calm Calm - 0.00 in   Mostly Cloudy
2:53 AM 71.1 °F - 70.0 °F 96% 30.03 in 5.0 mi Calm Calm - 0.00 in   Mostly Cloudy
3:01 AM 71.6 °F - 69.8 °F 94% 30.05 in 6.0 mi Calm Calm - N/A   Mostly Cloudy
3:15 AM 71.6 °F - 69.8 °F 94% 30.06 in 5.0 mi Calm Calm - N/A   Mostly Cloudy
4:24 AM 71.6 °F - 71.6 °F 100% 30.04 in 5.0 mi Calm Calm - 0.00 in   Overcast
4:53 AM 72.0 °F - 71.1 °F 97% 30.02 in 5.0 mi Calm Calm - 0.00 in   Overcast
5:24 AM 71.6 °F - 69.8 °F 94% 30.03 in 4.0 mi Calm Calm - N/A   Partly Cloudy
5:45 AM 71.6 °F - 69.8 °F 94% 30.04 in 5.0 mi East 3.5 mph - N/A   Mostly Cloudy
5:53 AM 71.1 °F - 70.0 °F 96% 30.02 in 6.0 mi Calm Calm - N/A   Mostly Cloudy
6:06 AM 71.6 °F - 69.8 °F 94% 30.04 in 5.0 mi SE 3.5 mph - N/A   Overcast
6:17 AM 71.6 °F - 69.8 °F 94% 30.04 in 5.0 mi Calm Calm - N/A   Overcast
6:25 AM 71.6 °F - 69.8 °F 94% 30.05 in 6.0 mi Calm Calm - N/A   Overcast
6:49 AM 71.6 °F - 69.8 °F 94% 30.05 in 6.0 mi Calm Calm - N/A   Overcast
6:53 AM 71.1 °F - 70.0 °F 96% 30.03 in 5.0 mi Calm Calm - N/A   Overcast
7:07 AM 71.6 °F - 69.8 °F 94% 30.05 in 4.0 mi Calm Calm - N/A   Mostly Cloudy
7:29 AM 71.6 °F - 69.8 °F 94% 30.06 in 2.5 mi Calm Calm - N/A   Partly Cloudy
7:44 AM 71.6 °F - 69.8 °F 94% 30.06 in 2.5 mi Calm Calm - N/A   Mostly Cloudy
7:51 AM 71.6 °F - 69.8 °F 94% 30.06 in 4.0 mi Calm Calm - N/A   Mostly Cloudy
7:53 AM 71.1 °F - 70.0 °F 96% 30.04 in 4.0 mi Calm Calm - N/A   Overcast
8:53 AM 72.0 °F - 70.0 °F 93% 30.04 in 5.0 mi SSE 4.6 mph - N/A   Overcast
9:11 AM 71.6 °F - 69.8 °F 94% 30.05 in 5.0 mi ESE 5.8 mph - N/A   Overcast
9:35 AM 71.6 °F - 69.8 °F 94% 30.05 in 8.0 mi SE 5.8 mph - N/A   Overcast
9:42 AM 71.6 °F - 69.8 °F 94% 30.05 in 9.0 mi SE 8.1 mph - N/A   Overcast
9:53 AM 72.0 °F - 71.1 °F 97% 30.04 in 10.0 mi SSE 3.5 mph - N/A   Overcast
10:18 AM 73.4 °F - 71.6 °F 94% 30.05 in 10.0 mi SE 3.5 mph - N/A   Mostly Cloudy
10:37 AM 73.4 °F - 71.6 °F 94% 30.05 in 10.0 mi SE 4.6 mph - N/A   Overcast
10:53 AM 73.0 °F - 70.0 °F 90% 30.04 in 10.0 mi SE 4.6 mph - N/A   Overcast
11:03 AM 73.4 °F - 69.8 °F 88% 30.05 in 10.0 mi ESE 8.1 mph - N/A   Overcast
11:19 AM 73.4 °F - 71.6 °F 94% 30.05 in 10.0 mi ESE 5.8 mph - N/A   Overcast
11:53 AM 75.9 °F - 71.1 °F 85% 30.03 in 10.0 mi Variable 3.5 mph - N/A   Mostly Cloudy
12:08 PM 75.2 °F - 69.8 °F 83% 30.04 in 10.0 mi SE 5.8 mph - N/A   Scattered Clouds
12:16 PM 75.2 °F - 69.8 °F 83% 30.04 in 10.0 mi SE 5.8 mph - N/A   Mostly Cloudy
12:25 PM 75.2 °F - 69.8 °F 83% 30.04 in 10.0 mi SE 6.9 mph - N/A   Partly Cloudy
12:40 PM 75.2 °F - 69.8 °F 83% 30.04 in 10.0 mi Variable 3.5 mph - N/A   Mostly Cloudy
12:48 PM 75.2 °F - 69.8 °F 83% 30.03 in 10.0 mi Variable 4.6 mph - N/A   Scattered Clouds
12:53 PM 75.9 °F - 69.1 °F 79% 30.02 in 10.0 mi SE 5.8 mph - N/A   Scattered Clouds
1:45 PM 75.2 °F - 69.8 °F 83% 30.03 in 10.0 mi SE 5.8 mph - N/A   Mostly Cloudy
1:53 PM 75.9 °F - 69.1 °F 79% 30.01 in 10.0 mi SE 5.8 mph - N/A   Mostly Cloudy
2:44 PM 78.8 °F - 71.6 °F 78% 30.01 in 10.0 mi East 6.9 mph - N/A   Scattered Clouds
2:53 PM 79.0 °F - 70.0 °F 74% 29.99 in 10.0 mi ESE 4.6 mph - N/A   Scattered Clouds
3:31 PM 78.8 °F - 69.8 °F 74% 29.99 in 10.0 mi SE 4.6 mph - N/A   Mostly Cloudy
3:42 PM 78.8 °F - 68.0 °F 69% 29.99 in 10.0 mi SE 5.8 mph - N/A   Scattered Clouds
3:53 PM 78.1 °F - 68.0 °F 71% 29.96 in 10.0 mi SSE 3.5 mph - N/A   Partly Cloudy
4:53 PM 79.0 °F - 69.1 °F 72% 29.95 in 10.0 mi ESE 3.5 mph - N/A   Clear
5:53 PM 80.1 °F 82.9 °F 69.1 °F 69% 29.95 in 10.0 mi East 5.8 mph - N/A   Clear
6:53 PM 79.0 °F - 69.1 °F 72% 29.94 in 10.0 mi East 3.5 mph - N/A   Clear
7:53 PM 75.0 °F - 70.0 °F 84% 29.95 in 10.0 mi Calm Calm - N/A   Clear
8:53 PM 71.1 °F - 69.1 °F 93% 29.96 in 10.0 mi Calm Calm - N/A   Clear
9:53 PM 70.0 °F - 68.0 °F 93% 29.96 in 10.0 mi Calm Calm - N/A   Clear
10:53 PM 69.1 °F - 66.9 °F 93% 29.96 in 10.0 mi Calm Calm - N/A   Clear
11:53 PM 69.1 °F - 66.9 °F 93% 29.95 in 9.0 mi Calm Calm - N/A   Clear